Weather in Gulca Şehri

China     43°56′02″N   81°17′57″E
temp.,
°C
wind,
m/s
gust,
m/s
humid.,
%
clouds,
%
prec.,
mm/h
press.,
hPa
HPBL,
m
14 april, wed
wed1400:00+12nne34280 0.0 102139
03:00+11ne33290 0.0 102128
06:00+10ne33310 0.0 102233
09:00+16ese46273 0.0 1022540
12:00+21se44194 0.0 10201591
15:00+22se34137 0.0 10172378
18:00+21ene571534 0.0 1016406
21:00+15ne57211 0.0 1018105
15 april, thu
thu1500:00+13ne46197 0.0 101885
03:00+11ne451749 0.0 101763
06:00+10ne451918 0.0 101851
09:00+17e45163 0.0 1016587
12:00+22e45143 0.0 10141837
15:00+23ne53130 0.0 10122373
18:00+20ne58180 0.0 1013363
21:00+14nne57240 0.0 1015118
16 april, fri
fri1600:00+12ne45244 0.0 101569
03:00+11ne45245 0.0 101563
06:00+10ne4526100 0.0 101557
09:00+18e231999 0.0 1014480
12:00+22se221756 0.0 10131305
15:00+24w2314100 0.0 10111989
18:00+23w231669 0.0 1010150
21:00+17nne452399 0.0 101348
17 april, sat
sat1700:00+15ne1128100 0.0 101212
03:00+15sw1129100 0.0 101310
06:00+14ne223141 0.0 101428
09:00+18sse223498 0.0 1014594
12:00+21w463475 0.0 10132311
15:00+23wsw7102925 0.0 10112964
18:00+21wsw91129100 0.0 10121435
21:00+18w71434100 0.0 1014790
18 april, sun
sun1800:00+14nw22445 0.0 101524
03:00+12ene22505 0.0 101617
06:00+11ne335350 0.0 101620
09:00+17se224135 0.0 1016555
12:00+20wsw3529100 0.0 10142073
15:00+21w5620100 0.0 10122465
18:00+20wnw5723100 0.0 10121137
21:00+17wsw81135100 0.0 1016774